When you browse on this site, cookies collect data to enhance your experience and personalize the content and advertising you see.
Visit our Privacy Policy to learn more. By continuing to use the site, you agree to this use of cookies and data.
  • In United Kingdom
  • List of Countries
  • For 7 days
  • Water Temperature
  • Weather Map
  • Weather Widgets
  • user-avatar
    Login

    Hourly Weather Piaui

    Today, 22 November, Friday

    Time Temperature Precipitation Wind Pressure Humidity
    00:00 +26°C° 0 mm 1 mps 717 mmHg 52%
    01:00 +25°C° 0 mm 1 mps 717 mmHg 52%
    02:00 +23°C° 0 mm 0 mps 717 mmHg 52%
    03:00 +23°C° 0 mm 0 mps 717 mmHg 51%
    04:00 +25°C° 0 mm 1 mps 717 mmHg 51%
    05:00 +25°C° 0 mm 1 mps 718 mmHg 52%
    06:00 +25°C° 0 mm 2 mps 718 mmHg 52%
    07:00 +27°C° 0 mm 3 mps 719 mmHg 50%
    08:00 +29°C° 0 mm 3 mps 719 mmHg 47%
    09:00 +32°C° 0 mm 4 mps 720 mmHg 44%
    10:00 +33°C° 0 mm 4 mps 719 mmHg 41%
    11:00 +35°C° 0 mm 3 mps 719 mmHg 38%
    12:00 +36°C° 0 mm 3 mps 719 mmHg 34%
    13:00 +36°C° 0 mm 3 mps 718 mmHg 34%
    14:00 +36°C° 0 mm 3 mps 717 mmHg 33%
    15:00 +36°C° 0 mm 2 mps 716 mmHg 33%
    16:00 +35°C° 0 mm 2 mps 716 mmHg 39%
    17:00 +32°C° 0 mm 2 mps 716 mmHg 45%
    18:00 +30°C° 0 mm 1 mps 717 mmHg 51%
    19:00 +30°C° 0 mm 1 mps 717 mmHg 53%
    20:00 +29°C° 0 mm 1 mps 717 mmHg 56%
    21:00 +28°C° 0 mm 1 mps 718 mmHg 58%
    22:00 +28°C° 0 mm 1 mps 718 mmHg 60%
    23:00 +28°C° 0 mm 1 mps 718 mmHg 62%

    Tomorrow, 23 November, Saturday

    Time Temperature Precipitation Wind Pressure Humidity
    00:00 +27°C° 0 mm 1 mps 717 mmHg 64%
    01:00 +27°C° 0 mm 1 mps 717 mmHg 66%
    02:00 +26°C° 0 mm 1 mps 717 mmHg 68%
    03:00 +24°C° 0 mm 0 mps 716 mmHg 70%
    04:00 +26°C° 0.1 mm 1 mps 717 mmHg 71%
    05:00 +26°C° 0.1 mm 1 mps 717 mmHg 73%
    06:00 +25°C° 0.1 mm 1 mps 718 mmHg 74%
    07:00 +27°C° 0.1 mm 2 mps 718 mmHg 67%
    08:00 +29°C° 0.1 mm 2 mps 719 mmHg 60%
    09:00 +30°C° 0.1 mm 3 mps 720 mmHg 53%
    10:00 +33°C° 0 mm 3 mps 719 mmHg 49%
    11:00 +35°C° 0 mm 3 mps 719 mmHg 44%
    12:00 +36°C° 0 mm 3 mps 719 mmHg 39%
    13:00 +36°C° 0 mm 2 mps 718 mmHg 39%
    14:00 +36°C° 0 mm 2 mps 717 mmHg 38%
    15:00 +35°C° 0 mm 1 mps 717 mmHg 38%
    16:00 +33°C° 0 mm 1 mps 716 mmHg 42%
    17:00 +32°C° 0 mm 1 mps 716 mmHg 45%
    18:00 +31°C° 0 mm 1 mps 716 mmHg 49%
    19:00 +30°C° 0 mm 1 mps 717 mmHg 51%
    20:00 +29°C° 0 mm 1 mps 717 mmHg 54%
    21:00 +28°C° 0 mm 1 mps 717 mmHg 56%
    22:00 +28°C° 0 mm 1 mps 717 mmHg 57%
    23:00 +27°C° 0 mm 1 mps 717 mmHg 59%

    Day after tomorrow, 24 November, Sunday

    Time Temperature Precipitation Wind Pressure Humidity
    00:00 +27°C° 0 mm 1 mps 717 mmHg 61%
    01:00 +26°C° 0 mm 1 mps 716 mmHg 64%
    02:00 +26°C° 0 mm 1 mps 716 mmHg 67%
    03:00 +25°C° 0 mm 1 mps 716 mmHg 71%
    04:00 +25°C° 0 mm 1 mps 716 mmHg 72%
    05:00 +25°C° 0 mm 1 mps 717 mmHg 73%
    06:00 +25°C° 0 mm 1 mps 717 mmHg 74%
    07:00 +28°C° 0 mm 1 mps 718 mmHg 66%
    08:00 +30°C° 0 mm 1 mps 718 mmHg 58%
    09:00 +32°C° 0 mm 1 mps 719 mmHg 50%
    10:00 +34°C° 0.2 mm 1 mps 719 mmHg 47%
    11:00 +35°C° 0.2 mm 1 mps 718 mmHg 43%
    12:00 +36°C° 0.2 mm 1 mps 718 mmHg 40%
    13:00 +36°C° 0 mm 1 mps 717 mmHg 39%
    14:00 +37°C° 0 mm 2 mps 717 mmHg 38%
    15:00 +37°C° 0 mm 2 mps 716 mmHg 38%
    16:00 +35°C° 0 mm 2 mps 716 mmHg 43%
    17:00 +33°C° 0 mm 1 mps 716 mmHg 48%
    18:00 +31°C° 0 mm 1 mps 716 mmHg 53%
    19:00 +30°C° 0 mm 1 mps 716 mmHg 56%
    20:00 +29°C° 0 mm 1 mps 717 mmHg 58%
    21:00 +28°C° 0 mm 1 mps 717 mmHg 61%
    22:00 +28°C° 0 mm 1 mps 717 mmHg 62%
    23:00 +27°C° 0 mm 1 mps 716 mmHg 63%

    25 November, Monday

    Time Temperature Precipitation Wind Pressure Humidity
    00:00 +27°C° 0 mm 1 mps 716 mmHg 64%
    01:00 +27°C° 0 mm 1 mps 716 mmHg 67%
    02:00 +26°C° 0 mm 1 mps 716 mmHg 69%
    03:00 +26°C° 0 mm 2 mps 716 mmHg 72%
    04:00 +26°C° 0 mm 1 mps 716 mmHg 73%
    05:00 +25°C° 0 mm 1 mps 717 mmHg 74%
    06:00 +25°C° 0 mm 1 mps 717 mmHg 75%
    07:00 +28°C° 0 mm 1 mps 718 mmHg 66%
    08:00 +31°C° 0 mm 2 mps 718 mmHg 57%
    09:00 +34°C° 0 mm 2 mps 719 mmHg 49%
    10:00 +35°C° 0 mm 2 mps 719 mmHg 45%
    11:00 +37°C° 0 mm 2 mps 718 mmHg 41%
    12:00 +38°C° 0 mm 2 mps 718 mmHg 38%
    13:00 +37°C° 0 mm 1 mps 717 mmHg 37%
    14:00 +37°C° 0 mm 1 mps 717 mmHg 35%
    15:00 +39°C° 0 mm 1 mps 716 mmHg 34%
    16:00 +35°C° 0.1 mm 1 mps 716 mmHg 41%
    17:00 +33°C° 0.1 mm 1 mps 715 mmHg 49%
    18:00 +30°C° 0.1 mm 1 mps 715 mmHg 56%
    19:00 +29°C° 0.4 mm 1 mps 716 mmHg 63%
    20:00 +28°C° 0.4 mm 1 mps 716 mmHg 70%
    21:00 +26°C° 0.4 mm 1 mps 716 mmHg 77%
    22:00 +26°C° 0.4 mm 1 mps 716 mmHg 81%
    23:00 +25°C° 0.4 mm 1 mps 716 mmHg 84%

    26 November, Tuesday

    Time Temperature Precipitation Wind Pressure Humidity
    00:00 +25°C° 0.4 mm 1 mps 716 mmHg 87%
    01:00 +24°C° 0.2 mm 1 mps 716 mmHg 88%
    02:00 +24°C° 0.2 mm 1 mps 716 mmHg 89%
    03:00 +24°C° 0.2 mm 1 mps 716 mmHg 90%
    04:00 +24°C° 0.7 mm 1 mps 716 mmHg 90%
    05:00 +24°C° 0.7 mm 1 mps 717 mmHg 90%
    06:00 +22°C° 0.7 mm 0 mps 717 mmHg 91%
    07:00 +25°C° 0.7 mm 1 mps 718 mmHg 87%
    08:00 +26°C° 0.7 mm 1 mps 718 mmHg 83%
    09:00 +27°C° 0.7 mm 2 mps 719 mmHg 80%
    10:00 +29°C° 0.7 mm 2 mps 718 mmHg 71%
    11:00 +31°C° 0.7 mm 2 mps 718 mmHg 62%
    12:00 +34°C° 0.7 mm 2 mps 718 mmHg 53%
    13:00 +34°C° 0 mm 2 mps 717 mmHg 50%
    14:00 +35°C° 0 mm 2 mps 717 mmHg 47%
    15:00 +36°C° 0 mm 2 mps 716 mmHg 43%
    16:00 +33°C° 0.2 mm 1 mps 716 mmHg 51%
    17:00 +31°C° 0.2 mm 1 mps 716 mmHg 59%
    18:00 +29°C° 0.2 mm 1 mps 716 mmHg 67%
    19:00 +28°C° 0.5 mm 1 mps 716 mmHg 73%
    20:00 +27°C° 0.5 mm 1 mps 716 mmHg 79%
    21:00 +26°C° 0.5 mm 1 mps 717 mmHg 85%
    22:00 +25°C° 0.1 mm 1 mps 717 mmHg 85%
    23:00 +25°C° 0.1 mm 1 mps 717 mmHg 85%

    27 November, Wednesday

    Time Temperature Precipitation Wind Pressure Humidity
    00:00 +23°C° 0.1 mm 0 mps 717 mmHg 85%
    01:00 +25°C° 0.8 mm 1 mps 717 mmHg 88%
    02:00 +24°C° 0.8 mm 1 mps 716 mmHg 91%
    03:00 +24°C° 0.8 mm 1 mps 716 mmHg 94%
    04:00 +24°C° 0.7 mm 1 mps 717 mmHg 93%
    05:00 +24°C° 0.7 mm 1 mps 717 mmHg 92%
    06:00 +24°C° 0.7 mm 1 mps 718 mmHg 90%
    07:00 +25°C° 0.3 mm 2 mps 718 mmHg 87%
    08:00 +26°C° 0.3 mm 2 mps 718 mmHg 83%
    09:00 +27°C° 0.3 mm 3 mps 719 mmHg 80%
    10:00 +29°C° 0.1 mm 3 mps 719 mmHg 70%
    11:00 +31°C° 0.1 mm 2 mps 719 mmHg 61%
    12:00 +34°C° 0.1 mm 2 mps 718 mmHg 51%
    13:00 +34°C° 0.1 mm 2 mps 718 mmHg 51%
    14:00 +33°C° 0.1 mm 1 mps 717 mmHg 50%
    15:00 +33°C° 0.1 mm 1 mps 716 mmHg 50%
    16:00 +31°C° 0.4 mm 1 mps 716 mmHg 59%
    17:00 +29°C° 0.4 mm 2 mps 717 mmHg 68%
    18:00 +28°C° 0.4 mm 2 mps 717 mmHg 77%
    19:00 +27°C° 0.2 mm 2 mps 717 mmHg 80%
    20:00 +26°C° 0.2 mm 2 mps 717 mmHg 83%
    21:00 +25°C° 0.2 mm 2 mps 717 mmHg 86%
    22:00 +25°C° 0 mm 2 mps 717 mmHg 87%
    23:00 +25°C° 0 mm 2 mps 717 mmHg 88%
    Show more